Weather in Arlan

Russia / Republic of Bashkortostan     55°58′27″N   54°14′51″E
temp.,
°C
wind,
m/s
gust,
m/s
humid.,
%
clouds,
%
prec.,
mm/h
press.,
hPa
HPBL,
m
1 august, sun
sun123:00+19wsw36895 0.2 1006109
02:00+18wsw36932 0.4 1007102
05:00+17wsw36940 0.4 1008100
08:00+20wsw49830 0.0 1009278
11:00+26w711470 0.0 10091244
14:00+28wnw8123597 0.0 10092710
17:00+29wnw710335 0.0 10102557
20:00+25wnw5944100 0.0 1011432
2 august, mon
mon223:00+20nw2261100 0.0 101216
02:00+18w116813 0.0 101311
05:00+17wsw11765 0.0 101311
08:00+20sw236358 0.0 1014178
11:00+26w454614 0.0 1014961
14:00+29w34345 0.0 10141898
17:00+30wnw34325 0.0 10131951
20:00+27wnw1144100 0.0 101312
3 august, tue
tue323:00+23sse114985 0.0 101311
02:00+20s33565 0.0 101322
05:00+19s22555 0.0 101315
08:00+23ssw23464 0.0 1013117
11:00+31s34285 0.0 1012614
14:00+35sw252124 0.0 10112726
17:00+34sse462445 0.0 10101363
20:00+29se483693 0.0 1010222
4 august, wed
wed423:00+25se344017 0.0 100959
02:00+25sse483924 0.0 1009140
05:00+21sse365595 0.0 100884
08:00+24sw3546100 0.0 1009170
11:00+30nw2234100 0.0 1009481
14:00+33nw2229100 0.0 10091594
17:00+34nw643019 0.0 10081664
20:00+28nw474685 0.2 1009301
5 august, thu
thu523:00+21nne2275100 0.4 101014
02:00+18nw238998 0.9 101147
05:00+17nw23940 1.4 101263
08:00+19nw34865 0.0 1012263
11:00+25nnw4551100 0.0 10121097
14:00+27n5539100 0.0 10121973
17:00+28n4434100 0.0 10112371
20:00+25n4740100 0.0 1012407